Weather History for Dyersburg, TN

Change the Weather History Date:

Friday, February 10, 2012

  Actual Average Record
Temperature  
Mean Temperature 36 °F -  
Max Temperature 41 °F 48 °F 69 °F (1999)
Min Temperature 30 °F 33 °F 8 °F (2011)
Degree Days  
Heating Degree Days 30    
Moisture  
Dew Point 27 °F    
Average Humidity 67    
Maximum Humidity 81    
Minimum Humidity 56    
Precipitation  
Precipitation 0.01 in - - ()
Sea Level Pressure  
Sea Level Pressure 30.14 in    
Wind  
Wind Speed 3 mph (SSW)    
Max Wind Speed 8 mph    
Max Gust Speed -    
Visibility 9 miles    
Events      
Averages and records for this station are not official NWS values.
T = Trace of Precipitation, MM = Missing Value Source: NWS Daily Summary

Daily Weather History Graph

Daily Weather History Graph

Search for Another Location

Airport:

Trip Planner

Search our weather history database for the weather conditions in past years. The results will help you decide how hot, cold, wet, or windy it might be!

Date:

Astronomy

Feb. 10, 2012 Rise Set
Actual Time 6:50 AM CST 5:33 PM CST
Civil Twilight 6:24 AM CST 6:00 PM CST
Nautical Twilight 5:53 AM CST 6:30 PM CST
Astronomical Twilight 5:24 AM CST 7:00 PM CST
Moon 9:02 PM CST (2/10) 8:07 AM CST (2/10)
Length of Visible Light 11h 35m
Length of Day
10h 42m
Waning Gibbous, 90% of the Moon is Illuminated
Feb 10
Waning Gibbous
Feb 14
Last Quarter
Feb 21
New
Feb 29
First Quarter
Mar 8
Full

Hourly Weather History & Observations

Time (CST) Temp. Windchill Dew Point Humidity Pressure Visibility Wind Dir Wind Speed Gust Speed Precip Events Conditions
12:15 AM 33.8 °F - 23.0 °F 65% 30.24 in 10.0 mi Calm Calm - N/A   Clear
12:35 AM 33.8 °F - 23.0 °F 65% 30.23 in 10.0 mi Calm Calm - N/A   Clear
12:55 AM 33.8 °F - 21.2 °F 60% 30.22 in 10.0 mi Calm Calm - N/A   Clear
1:15 AM 33.8 °F - 23.0 °F 65% 30.21 in 10.0 mi Calm Calm - N/A   Clear
1:35 AM 32.0 °F - 23.0 °F 69% 30.21 in 10.0 mi Calm Calm - N/A   Clear
1:55 AM 30.2 °F - 23.0 °F 75% 30.22 in 10.0 mi Calm Calm - N/A   Clear
2:15 AM 32.0 °F 28.7 °F 23.0 °F 69% 30.21 in 10.0 mi SSE 3.5 mph - N/A   Clear
2:35 AM 32.0 °F 27.5 °F 23.0 °F 69% 30.20 in 10.0 mi SE 4.6 mph - N/A   Clear
2:55 AM 33.8 °F 29.6 °F 23.0 °F 65% 30.19 in 10.0 mi SSE 4.6 mph - N/A   Clear
3:15 AM 33.8 °F 30.8 °F 21.2 °F 60% 30.19 in 10.0 mi South 3.5 mph - N/A   Partly Cloudy
3:35 AM 33.8 °F 30.8 °F 21.2 °F 60% 30.19 in 10.0 mi South 3.5 mph - N/A   Clear
3:55 AM 32.0 °F - 21.2 °F 64% 30.19 in 10.0 mi Calm Calm - N/A   Partly Cloudy
4:15 AM 32.0 °F - 21.2 °F 64% 30.19 in 10.0 mi Calm Calm - N/A   Partly Cloudy
4:35 AM 32.0 °F 27.5 °F 21.2 °F 64% 30.19 in 10.0 mi SSE 4.6 mph - N/A   Partly Cloudy
4:55 AM 33.8 °F 30.8 °F 21.2 °F 60% 30.19 in 10.0 mi South 3.5 mph - N/A   Mostly Cloudy
5:15 AM 33.8 °F 30.8 °F 21.2 °F 60% 30.19 in 10.0 mi South 3.5 mph - N/A   Scattered Clouds
5:35 AM 33.8 °F 29.6 °F 21.2 °F 60% 30.19 in 10.0 mi South 4.6 mph - N/A   Clear
5:55 AM 33.8 °F 28.6 °F 21.2 °F 60% 30.18 in 10.0 mi SE 5.8 mph - N/A   Mostly Cloudy
6:15 AM 33.8 °F 29.6 °F 21.2 °F 60% 30.17 in 10.0 mi SE 4.6 mph - N/A   Overcast
6:35 AM 33.8 °F 29.6 °F 23.0 °F 65% 30.16 in 10.0 mi SE 4.6 mph - N/A   Overcast
6:55 AM 33.8 °F 28.6 °F 23.0 °F 65% 30.16 in 10.0 mi SSE 5.8 mph - N/A   Overcast
7:15 AM 33.8 °F 29.6 °F 23.0 °F 65% 30.16 in 10.0 mi SSE 4.6 mph - N/A   Overcast
7:35 AM 33.8 °F 30.8 °F 23.0 °F 65% 30.17 in 10.0 mi South 3.5 mph - N/A   Overcast
7:55 AM 35.6 °F 32.8 °F 23.0 °F 60% 30.17 in 10.0 mi South 3.5 mph - N/A   Overcast
8:15 AM 35.6 °F 32.8 °F 24.8 °F 65% 30.17 in 10.0 mi South 3.5 mph - N/A   Overcast
8:35 AM 35.6 °F 30.7 °F 24.8 °F 65% 30.18 in 10.0 mi SW 5.8 mph - N/A   Overcast
8:55 AM 35.6 °F 31.7 °F 24.8 °F 65% 30.17 in 10.0 mi South 4.6 mph - N/A   Overcast
9:15 AM 37.4 °F 33.8 °F 24.8 °F 60% 30.17 in 10.0 mi South 4.6 mph - N/A   Overcast
9:35 AM 37.4 °F 32.1 °F 24.8 °F 60% 30.16 in 10.0 mi South 6.9 mph - N/A   Overcast
9:55 AM 39.2 °F 34.2 °F 24.8 °F 56% 30.16 in 10.0 mi South 6.9 mph - N/A   Overcast
10:15 AM 39.2 °F 35.0 °F 26.6 °F 61% 30.16 in 10.0 mi SSW 5.8 mph - N/A   Overcast
10:35 AM 39.2 °F 33.6 °F 26.6 °F 61% 30.16 in 10.0 mi SSW 8.1 mph - N/A   Overcast
10:55 AM 39.2 °F 35.0 °F 26.6 °F 61% 30.15 in 10.0 mi South 5.8 mph - N/A   Overcast
11:15 AM 39.2 °F 34.2 °F 28.4 °F 65% 30.14 in 10.0 mi SSW 6.9 mph - N/A   Overcast
11:35 AM 41.0 °F 36.4 °F 28.4 °F 61% 30.14 in 10.0 mi SSW 6.9 mph - N/A   Overcast
11:55 AM 39.2 °F 35.0 °F 28.4 °F 65% 30.12 in 10.0 mi SSW 5.8 mph - N/A   Overcast
12:15 PM 41.0 °F 39.0 °F 28.4 °F 61% 30.11 in 10.0 mi SSW 3.5 mph - N/A   Overcast
12:35 PM 41.0 °F 39.0 °F 28.4 °F 61% 30.10 in 10.0 mi SSW 3.5 mph - N/A   Overcast
12:55 PM 41.0 °F 38.0 °F 28.4 °F 61% 30.09 in 10.0 mi SW 4.6 mph - N/A   Overcast
1:15 PM 41.0 °F 37.1 °F 30.2 °F 65% 30.09 in 10.0 mi SW 5.8 mph - N/A   Overcast
1:35 PM 41.0 °F 37.1 °F 30.2 °F 65% 30.08 in 10.0 mi SW 5.8 mph - N/A   Overcast
1:55 PM 39.2 °F 35.9 °F 30.2 °F 70% 30.07 in 7.0 mi South 4.6 mph - N/A   Overcast
2:15 PM 39.2 °F 35.0 °F 30.2 °F 70% 30.06 in 8.0 mi South 5.8 mph - N/A   Overcast
2:35 PM 39.2 °F 34.2 °F 30.2 °F 70% 30.06 in 9.0 mi South 6.9 mph - N/A   Overcast
2:55 PM 39.2 °F 35.0 °F 30.2 °F 70% 30.05 in 8.0 mi South 5.8 mph - N/A   Overcast
3:15 PM 39.2 °F 37.0 °F 30.2 °F 70% 30.06 in 9.0 mi South 3.5 mph - N/A   Overcast
3:35 PM 39.2 °F 35.9 °F 30.2 °F 70% 30.06 in 10.0 mi SW 4.6 mph - N/A   Overcast
3:55 PM 39.2 °F 35.9 °F 30.2 °F 70% 30.07 in 9.0 mi SSW 4.6 mph - N/A   Overcast
4:15 PM 39.2 °F 35.9 °F 30.2 °F 70% 30.06 in 9.0 mi SW 4.6 mph - N/A   Overcast
4:35 PM 39.2 °F 37.0 °F 30.2 °F 70% 30.06 in 8.0 mi SW 3.5 mph - N/A   Overcast
4:55 PM 39.2 °F 35.0 °F 32.0 °F 75% 30.07 in 4.0 mi SW 5.8 mph - N/A   Overcast
5:15 PM 39.2 °F 35.9 °F 32.0 °F 75% 30.07 in 3.0 mi WSW 4.6 mph - N/A   Overcast
5:35 PM 39.2 °F 35.0 °F 32.0 °F 75% 30.08 in 1.8 mi West 5.8 mph - 0.01 in   Overcast
5:55 PM 39.2 °F 35.0 °F 32.0 °F 75% 30.08 in 2.0 mi WSW 5.8 mph - 0.01 in   Overcast
6:15 PM 39.2 °F 35.0 °F 33.8 °F 81% 30.08 in 2.0 mi WSW 5.8 mph - N/A   Overcast
6:35 PM 39.2 °F 35.0 °F 33.8 °F 81% 30.08 in 4.0 mi WSW 5.8 mph - N/A   Overcast
6:55 PM 39.2 °F 35.0 °F 33.8 °F 81% 30.09 in 5.0 mi West 5.8 mph - N/A   Overcast
7:15 PM 39.2 °F 35.0 °F 33.8 °F 81% 30.09 in 5.0 mi West 5.8 mph - N/A   Overcast
7:35 PM 39.2 °F 34.2 °F 33.8 °F 81% 30.09 in 5.0 mi West 6.9 mph - N/A   Overcast
7:55 PM 39.2 °F 33.6 °F 33.8 °F 81% 30.10 in 6.0 mi West 8.1 mph - N/A   Overcast
8:15 PM 39.2 °F 33.6 °F 33.8 °F 81% 30.10 in 5.0 mi West 8.1 mph - N/A   Overcast
8:35 PM 39.2 °F 33.6 °F 33.8 °F 81% 30.11 in 7.0 mi West 8.1 mph - N/A   Overcast
8:55 PM 39.2 °F 35.0 °F 33.8 °F 81% 30.12 in 6.0 mi West 5.8 mph - N/A   Overcast
9:15 PM 39.2 °F 30.2 °F 33.8 °F 81% 30.12 in 7.0 mi NW 17.3 mph 24.2 mph N/A   Overcast
9:35 PM 35.6 °F 25.9 °F 28.4 °F 75% 30.13 in 9.0 mi North 16.1 mph 25.3 mph N/A   Overcast
9:55 PM 35.6 °F 24.8 °F 28.4 °F 75% 30.14 in 8.0 mi NNW 19.6 mph 27.6 mph N/A   Overcast
10:15 PM 35.6 °F 25.5 °F 26.6 °F 70% 30.16 in 8.0 mi NNW 17.3 mph 31.1 mph N/A   Overcast
10:35 PM 33.8 °F 21.9 °F 24.8 °F 70% 30.17 in 10.0 mi NNW 21.9 mph 29.9 mph N/A   Overcast
10:55 PM 33.8 °F 21.6 °F 23.0 °F 65% 30.17 in 10.0 mi NNW 23.0 mph 28.8 mph N/A   Overcast
11:15 PM 33.8 °F 22.5 °F 21.2 °F 60% 30.18 in 10.0 mi North 19.6 mph 28.8 mph N/A   Overcast
11:35 PM 32.0 °F 18.9 °F 19.4 °F 60% 30.18 in 10.0 mi North 24.2 mph 33.4 mph N/A   Overcast
11:55 PM 32.0 °F 22.1 °F 17.6 °F 55% 30.19 in 10.0 mi NNW 13.8 mph 25.3 mph N/A   Overcast